Regional Weather Roundup
Issued by NWS

Home | Current Version | Previous Version | Text Only | Print | Product List | Glossary On
Versions: 1 2 3 4 5 6 7 8 9 10 11 12 13 14 15 16 17 18 19 20 21 22 23 24 25 26 27 28 29 30 31 32 33 34 35 36 37 38 39 40 41 42 43 44 45 46 47 48 49 50
000
ASUS45 KPSR 220610
RWRAZ

ARIZONA HOURLY REGIONAL WEATHER ROUNDUP
NATIONAL WEATHER SERVICE PHOENIX AZ
1100 PM MST SUN JAN 21 2018

NOTE: FAIR INDICATES FEW OR NO CLOUDS BELOW 12,000 FEET WITH NO
SIGNIFICANT WEATHER AND/OR OBSTRUCTIONS TO VISIBILITY.

AZZ001>003-036-220700-
NORTHWEST ARIZONA

CITY           SKY/WX    TMP DP  RH WIND       PRES   REMARKS
BULLHEAD CITY  CLEAR     50  18  27 CALM      30.32R
KINGMAN        CLEAR    N/A N/A N/A E7        30.30R
$$

AZZ004>008-015-016-018-220700-
NORTH CENTRAL ARIZONA

CITY           SKY/WX    TMP DP  RH WIND       PRES   REMARKS
GRAND CANYON   PTCLDY     6   4  91 NE3       30.23R
6HR MIN TEMP:   5; 6HR MAX TEMP:  29;

WILLIAMS       PTCLDY    12   7  79 S5        30.20R WCI   4
PRESCOTT       CLEAR     26  17  68 W5        30.25R WCI  20
6HR MIN TEMP:  25; 6HR MAX TEMP:  40;

FLAGSTAFF      PTCLDY    12   5  73 CALM      30.19R
6HR MIN TEMP:  12; 6HR MAX TEMP:  29;

PAYSON         CLEAR     25  19  80 NW3       30.22R
PAGE           CLEAR     33  11  39 W6        30.24R WCI  28
6HR MIN TEMP:  33; 6HR MAX TEMP:  42;

$$

AZZ009>014-017-220700-
NORTHEAST ARIZONA

CITY           SKY/WX    TMP DP  RH WIND       PRES   REMARKS
WINSLOW        CLEAR     17   7  64 SW5       30.24R WCI  10
6HR MIN TEMP:  17; 6HR MAX TEMP:  42;

SAINT JOHNS    PTCLDY    22  11  62 SW5       30.18R WCI  16
6HR MIN TEMP:  21; 6HR MAX TEMP:  34;

WINDOW ROCK    MOCLDY    14   5  67 CALM      30.15R
6HR MIN TEMP:  13; 6HR MAX TEMP:  28;

SHOW LOW       DRIZZLE   14  10  85 S5        30.22R WCI   6
$$

AZZ540-542>544-546-548-220700-
GREATER PHOENIX AREA

CITY           SKY/WX    TMP DP  RH WIND       PRES   REMARKS
PHOENIX        CLEAR     48  20  32 CALM      30.25R
6HR MIN TEMP:  47; 6HR MAX TEMP:  57;

BUCKEYE        CLEAR     41  14  33 N7        30.27R
LUKE AFB       CLEAR     47  17  30 CALM      30.24R
6HR MIN TEMP:  46; 6HR MAX TEMP:  58;

DEER VALLEY    CLEAR     43  23  45 E7        30.25R
6HR MIN TEMP:  41; 6HR MAX TEMP:  56;

SCOTTSDALE     CLEAR     44  24  45 NE5       30.26R
6HR MIN TEMP:  44; 6HR MAX TEMP:  56;

MESA-GATEWAY   MOCLDY    39  19  45 E8        30.28R WCI  34
$$

AZZ539-553-220700-
SOUTHWEST MARICOPA COUNTY AND PINAL COUNTY

CITY           SKY/WX    TMP DP  RH WIND       PRES   REMARKS
CASA GRANDE    NOT AVBL
GILA BEND      FAIR      42  13  30 SE8       30.26R
6HR MIN TEMP:  42; 6HR MAX TEMP:  58;

$$

AZZ503-504-507>509-220700-
SOUTHEAST ARIZONA

CITY           SKY/WX    TMP DP  RH WIND       PRES   REMARKS
TUCSON         CLEAR     37  15  40 S8        30.28S WCI  31
6HR MIN TEMP:  37; 6HR MAX TEMP:  51;

DAVIS-MONTHAN  CLEAR     34  16  46 S8        30.26R WCI  28
6HR MIN TEMP:  34; 6HR MAX TEMP:  50;

NOGALES        CLEAR     32  12  43 NE7       30.22S WCI  26
6HR MIN TEMP:  31; 6HR MAX TEMP:  49;

SIERRA VISTA   CLEAR     32  13  45 W12       30.24S WCI  23
6HR MIN TEMP:  31; 6HR MAX TEMP:  43;

DOUGLAS        CLEAR     26  10  50 N7        30.24R WCI  18
6HR MIN TEMP:  25; 6HR MAX TEMP:  48;

SAFFORD        CLEAR     38  18  44 NW12      30.22R WCI  30
6HR MIN TEMP:  37; 6HR MAX TEMP:  49;

$$

AZZ532-220700-
SOUTHWEST ARIZONA

CITY           SKY/WX    TMP DP  RH WIND       PRES   REMARKS
YUMA           PTCLDY    48  18  30 CALM      30.28R
6HR MIN TEMP:  47; 6HR MAX TEMP:  64;

$$

CAZ041-043-047-048-061-525>527-560>570-220700-
SOUTHERN CALIFORNIA

CITY           SKY/WX    TMP DP  RH WIND       PRES   REMARKS
DOWNTOWN L.A.  CLEAR     51  35  54 CALM      30.28S
6HR MIN TEMP:  51; 6HR MAX TEMP:  61;

L.A. AIRPORT   PTCLDY    56  34  43 NW5       30.29S
6HR MIN TEMP:  54; 6HR MAX TEMP:  60;

SAN DIEGO      MOCLDY    53  38  56 NW3       30.28F
6HR MIN TEMP:  53; 6HR MAX TEMP:  61;

BURBANK        CLEAR     50  29  44 W3        30.28R
6HR MIN TEMP:  50; 6HR MAX TEMP:  60;

ONTARIO        MOCLDY    48  27  44 CALM      30.28S
6HR MIN TEMP:  45; 6HR MAX TEMP:  60;

RIVERSIDE      PTCLDY    47  34  60 CALM      30.28F
6HR MIN TEMP:  46; 6HR MAX TEMP:  61;

PALM SPRINGS   PTCLDY    51  25  36 NW3       30.31R
6HR MIN TEMP:  51; 6HR MAX TEMP:  65;

EL CENTRO NAS  PTCLDY    45  15  30 W5        30.30S
6HR MIN TEMP:  44; 6HR MAX TEMP:  65;

IMPERIAL       PTCLDY    46  21  37 CALM      30.28S
6HR MIN TEMP:  43; 6HR MAX TEMP:  64;

BLYTHE         CLEAR     44  14  29 NW7       30.29S
6HR MIN TEMP:  44; 6HR MAX TEMP:  62;

NEEDLES        CLEAR     50  16  25 NW10      30.31R
6HR MIN TEMP:  50; 6HR MAX TEMP:  60;

$$

NVZ020-UTZ003-220700-
SOUTHERN NEVADA-UTAH

CITY           SKY/WX    TMP DP  RH WIND       PRES   REMARKS
LAS VEGAS      PTCLDY    42  22  44 SW5       30.32R
6HR MIN TEMP:  42; 6HR MAX TEMP:  52;

SALT LAKE CITY PTCLDY    26  19  74 SE8       30.29S WCI  18
6HR MIN TEMP:  26; 6HR MAX TEMP:  33;

$$

NMZ009-TXZ055-220700-
NEW MEXICO-WEST TEXAS

CITY           SKY/WX    TMP DP  RH WIND       PRES   REMARKS
ALBUQUERQUE    PTCLDY    31  10  41 N10G30    30.10R WCI  22
6HR MIN TEMP:  31; 6HR MAX TEMP:  38;

EL PASO        CLEAR     41  16  36 W10       30.14R
6HR MIN TEMP:  41; 6HR MAX TEMP:  49;

$$


........................KEY........................
SKY/WX - SKY CONDITION/WEATHER
TMP    - TEMPERATURE IN FAHRENHEIT
DP     - DEW POINT IN FAHRENHEIT
RH     - RELATIVE HUMIDITY IN PERCENT
WIND   - DIRECTION AND SPEED IN MILES PER HOUR (MPH)
VRB    - VARIABLE WIND DIRECTION
PRES   - MEAN SEA LEVEL PRESSURE IN INCHES OF MERCURY
         F - FALLING PRESSURE   R - RISING PRESSURE
         S - STEADY PRESSURE
VSB    - VISIBILITY IN MILES
HX     - HEAT INDEX IN FAHRENHEIT
WCI    - WIND CHILL INDEX IN FAHRENHEIT
TC     - TEMPERATURE IN CELSIUS WHICH IS ALSO KNOWN AS
         TEMPERATURE IN CENTIGRADE
AFB    - AIR FORCE BASE
         LUKE AFB IS LUKE AIR FORCE BASE
         DAVIS-MONTHAN IS DAVIS-MONTHAN AIR FORCE BASE
NAS    - NAVAL AIR STATION
         EL CENTRO NAS IS EL CENTRO NAVAL AIR STATION
N/A    - NOT AVAILABLE




USA.gov is the U.S. government's official web portal to all federal, state and local government web resources and services.